TimeEST,TemperatureF,Dew PointF,Humidity,Sea Level PressureIn,VisibilityMPH,Wind Direction,Wind SpeedMPH,Gust SpeedMPH,PrecipitationIn,Events,Conditions,WindDirDegrees,DateUTC
12:18 AM,28.4,19.4,69,29.84,10.0,West,9.2,-,N/A,,Overcast,270,2013-01-17 05:18:00
12:56 AM,28.9,19.0,67,29.91,10.0,West,8.1,20.7,N/A,,Overcast,270,2013-01-17 05:56:00
1:56 AM,28.9,19.9,69,29.93,10.0,West,13.8,20.7,N/A,,Overcast,270,2013-01-17 06:56:00
2:56 AM,28.9,19.9,69,29.94,10.0,West,12.7,20.7,N/A,,Overcast,270,2013-01-17 07:56:00
3:56 AM,28.9,21.0,72,29.96,10.0,West,8.1,19.6,N/A,,Overcast,270,2013-01-17 08:56:00
4:48 AM,28.4,21.2,74,29.90,10.0,West,15.0,24.2,N/A,,Overcast,270,2013-01-17 09:48:00
4:56 AM,28.9,23.0,78,29.97,10.0,West,15.0,-,N/A,,Overcast,280,2013-01-17 09:56:00
5:54 AM,28.4,24.8,86,29.92,10.0,West,13.8,25.3,N/A,,Overcast,280,2013-01-17 10:54:00
5:56 AM,28.9,24.1,82,29.99,10.0,West,18.4,23.0,N/A,,Overcast,280,2013-01-17 10:56:00
7:15 AM,28.4,24.8,86,29.95,10.0,WNW,21.9,31.1,N/A,,Overcast,290,2013-01-17 12:15:00
7:39 AM,28.4,23.0,80,29.96,10.0,WNW,13.8,-,N/A,,Overcast,300,2013-01-17 12:39:00
7:56 AM,28.9,23.0,78,30.04,10.0,NW,10.4,20.7,N/A,,Overcast,310,2013-01-17 12:56:00
8:56 AM,28.9,21.9,75,30.07,4.0,NW,12.7,-,0.00,Snow,Light Snow,310,2013-01-17 13:56:00
9:56 AM,30.0,21.9,72,30.09,10.0,WNW,10.4,-,0.00,,Overcast,290,2013-01-17 14:56:00
10:56 AM,28.9,23.0,78,30.11,8.0,NNW,6.9,17.3,0.00,Snow,Light Snow,340,2013-01-17 15:56:00
11:04 AM,28.4,21.2,74,30.04,9.0,NNW,8.1,-,0.00,Snow,Light Snow,340,2013-01-17 16:04:00
11:25 AM,28.4,21.2,74,30.04,10.0,NNW,5.8,-,0.00,,Overcast,340,2013-01-17 16:25:00
11:56 AM,28.9,21.0,72,30.11,9.0,NW,8.1,-,0.00,,Overcast,320,2013-01-17 16:56:00
12:31 PM,28.4,21.2,74,30.01,10.0,NW,6.9,-,0.00,,Overcast,310,2013-01-17 17:31:00
12:56 PM,28.9,21.0,72,30.07,10.0,NNW,8.1,-,0.00,,Overcast,340,2013-01-17 17:56:00
1:56 PM,27.0,21.0,78,30.06,10.0,North,5.8,-,N/A,,Overcast,10,2013-01-17 18:56:00
2:56 PM,27.0,19.9,75,30.07,10.0,North,4.6,-,N/A,,Overcast,360,2013-01-17 19:56:00
3:56 PM,26.1,19.9,78,30.07,4.0,NNE,5.8,-,0.00,Snow,Light Snow,30,2013-01-17 20:56:00
4:19 PM,24.8,19.4,80,30.00,2.0,NE,3.5,-,0.00,Snow,Light Snow,50,2013-01-17 21:19:00
4:24 PM,24.8,19.4,80,30.00,3.0,Calm,Calm,-,0.00,Snow,Light Snow,0,2013-01-17 21:24:00
4:36 PM,24.8,19.4,80,30.00,1.8,East,3.5,-,0.00,Snow,Light Snow,90,2013-01-17 21:36:00
4:48 PM,24.8,19.4,80,30.00,1.8,ESE,3.5,-,0.00,Snow,Light Snow,110,2013-01-17 21:48:00
4:56 PM,24.1,19.9,84,30.09,2.5,Calm,Calm,-,0.00,Snow,Light Snow,0,2013-01-17 21:56:00
5:18 PM,24.8,19.4,80,30.02,4.0,Calm,Calm,-,0.01,Snow,Light Snow,0,2013-01-17 22:18:00
5:40 PM,23.0,19.4,86,30.02,2.5,NNE,5.8,-,0.01,Snow,Light Snow,30,2013-01-17 22:40:00
5:48 PM,23.0,19.4,86,30.03,3.0,NNE,4.6,-,0.01,Snow,Light Snow,20,2013-01-17 22:48:00
5:56 PM,23.0,19.9,88,30.12,2.5,NNE,6.9,-,0.01,Snow,Light Snow,20,2013-01-17 22:56:00
6:16 PM,23.0,19.4,86,30.03,4.0,North,5.8,-,0.00,Snow,Light Snow,10,2013-01-17 23:16:00
6:56 PM,21.9,19.0,89,30.13,4.0,NNE,4.6,-,0.00,Snow,Light Snow,20,2013-01-17 23:56:00
7:45 PM,21.2,17.6,86,30.03,5.0,NNE,4.6,-,0.00,Snow,Light Snow,20,2013-01-18 00:45:00
7:56 PM,19.9,17.1,89,30.13,6.0,NNE,5.8,-,0.00,Snow,Light Snow,20,2013-01-18 00:56:00
8:14 PM,19.4,17.6,93,30.03,4.0,NNE,3.5,-,0.00,Snow,Light Snow,20,2013-01-18 01:14:00
8:29 PM,19.4,15.8,86,30.03,5.0,North,3.5,-,0.00,Snow,Light Snow,10,2013-01-18 01:29:00
8:42 PM,19.4,17.6,93,30.04,5.0,Calm,Calm,-,0.00,Snow,Light Snow,0,2013-01-18 01:42:00
8:56 PM,19.0,16.0,88,30.13,8.0,Calm,Calm,-,0.00,Snow,Light Snow,0,2013-01-18 01:56:00
9:05 PM,19.4,15.8,86,30.02,10.0,Calm,Calm,-,N/A,,Mostly Cloudy,0,2013-01-18 02:05:00
9:16 PM,19.4,15.8,86,30.02,10.0,Calm,Calm,-,N/A,,Overcast,0,2013-01-18 02:16:00
9:28 PM,19.4,17.6,93,30.01,9.0,Calm,Calm,-,N/A,,Overcast,0,2013-01-18 02:28:00
9:46 PM,19.4,15.8,86,30.00,3.0,Calm,Calm,-,0.00,Snow,Light Snow,0,2013-01-18 02:46:00
9:56 PM,19.9,16.0,85,30.09,5.0,Calm,Calm,-,0.00,Snow,Light Snow,0,2013-01-18 02:56:00
10:10 PM,19.4,15.8,86,29.98,9.0,Calm,Calm,-,0.00,Snow,Light Snow,0,2013-01-18 03:10:00
10:56 PM,19.9,17.1,89,30.08,6.0,Calm,Calm,-,0.00,Snow,Light Snow,0,2013-01-18 03:56:00
11:04 PM,19.4,17.6,93,29.99,1.8,Calm,Calm,-,0.00,Snow,Light Snow,0,2013-01-18 04:04:00
11:13 PM,21.2,17.6,86,29.97,1.5,NW,10.4,-,0.00,Snow,Light Snow,310,2013-01-18 04:13:00
11:22 PM,21.2,17.6,86,29.98,0.5,WNW,9.2,-,0.01,Fog-Snow,Snow,300,2013-01-18 04:22:00
11:52 PM,21.2,15.8,80,30.00,1.2,NW,16.1,24.2,0.02,Snow,Light Snow,320,2013-01-18 04:52:00
11:56 PM,19.9,16.0,85,30.08,1.2,NNW,15.0,24.2,0.02,Snow,Light Snow,330,2013-01-18 04:56:00